MST,Max TemperatureF,Mean TemperatureF,Min TemperatureF,Max Dew PointF,MeanDew PointF,Min DewpointF,Max Humidity, Mean Humidity, Min Humidity, Max Sea Level PressureIn, Mean Sea Level PressureIn, Min Sea Level PressureIn, Max VisibilityMiles, Mean VisibilityMiles, Min VisibilityMiles, Max Wind SpeedMPH, Mean Wind SpeedMPH, Max Gust SpeedMPH,PrecipitationIn, CloudCover, Events, WindDirDegrees
2013-10-1,81,59,37,34,29,26,70,40,13,30.13,30.08,30.03,10,10,10,13,5,17,0.00,0,,164
2013-10-2,80,60,39,37,33,30,70,41,18,30.10,30.03,29.95,10,10,10,16,5,26,0.00,0,,182
2013-10-3,74,57,40,43,30,12,79,41,20,30.07,29.92,29.83,10,10,10,23,6,34,0.00,1,,277
2013-10-4,61,45,29,22,19,14,62,35,20,30.38,30.24,30.08,10,10,10,23,5,30,0.00,0,,353
2013-10-5,66,49,32,25,21,18,61,37,17,30.46,30.40,30.35,10,10,7,13,5,17,0.00,0,,359
2013-10-6,79,52,26,29,22,15,79,36,9,30.41,30.33,30.26,10,10,7,15,3,21,0.00,0,,102
2013-10-7,78,58,37,29,25,19,64,36,11,30.26,30.17,30.06,10,10,10,14,5,20,0.00,0,,136
2013-10-8,76,54,32,28,23,17,78,36,12,30.06,29.95,29.85,10,10,10,16,5,24,0.04,0,,175
2013-10-9,65,54,44,44,32,26,95,45,25,29.84,29.78,29.74,10,10,2,22,8,36,0.19,3,Rain-Thunderstorm,147
2013-10-10,51,46,41,44,42,39,97,87,71,30.07,29.91,29.77,10,10,5,14,7,18,0.18,8,Rain-Thunderstorm,234
2013-10-11,62,50,38,43,40,32,100,74,33,30.15,30.11,30.08,10,10,10,9,2,,0.00,3,,209
2013-10-12,68,50,33,43,38,33,100,70,27,30.14,30.07,30.00,10,10,10,9,3,,0.00,0,,152
2013-10-13,66,50,35,42,36,27,97,64,29,30.11,30.01,29.96,10,10,10,18,7,28,0.00,2,Rain-Thunderstorm,166
2013-10-14,62,46,30,39,33,30,100,65,31,30.22,30.17,30.11,10,10,10,10,3,16,0.00,0,,337
2013-10-15,62,46,30,32,29,27,94,52,27,30.18,30.13,30.08,10,10,10,17,4,23,0.00,2,,344
2013-10-16,61,44,27,31,26,20,91,54,22,30.28,30.22,30.18,10,10,5,8,2,9,0.00,0,,301
2013-10-17,67,48,28,31,24,15,90,52,13,30.20,30.14,30.06,10,10,7,13,4,16,0.00,0,,189
2013-10-18,68,48,27,29,25,20,88,50,18,30.25,30.20,30.13,10,10,10,14,3,18,0.00,0,,268
2013-10-19,71,49,27,26,21,14,81,48,12,30.28,30.21,30.15,10,10,10,8,4,16,0.00,0,,152
2013-10-20,72,50,27,25,21,16,77,42,12,30.16,30.09,30.02,10,10,10,10,4,,0.00,0,,207
2013-10-21,72,51,30,29,23,19,75,41,14,30.24,30.18,30.11,10,10,10,15,3,20,0.00,0,,112
2013-10-22,75,56,36,27,22,16,64,34,11,30.29,30.23,30.16,10,10,10,10,4,17,0.00,0,,127
2013-10-23,75,56,37,28,22,18,55,29,12,30.19,30.15,30.10,10,10,3,13,5,18,0.00,0,,103
2013-10-24,77,67,57,41,28,22,52,26,14,30.19,30.13,30.09,10,10,10,22,11,29,0.00,3,Thunderstorm,55
2013-10-25,73,58,42,37,33,29,71,40,22,30.29,30.24,30.17,10,10,10,26,7,34,0.00,1,Thunderstorm,58
2013-10-26,75,54,32,35,30,23,90,51,15,30.36,30.29,30.23,10,10,10,7,3,,0.00,0,,136
2013-10-27,74,54,35,31,29,26,74,44,18,30.23,30.01,29.76,10,10,10,18,6,23,0.00,1,,147
2013-10-28,67,54,42,45,33,25,95,56,20,29.87,29.74,29.69,10,9,2,30,12,39,0.24,4,Rain-Thunderstorm,186
2013-10-29,51,44,36,41,37,33,100,76,51,30.00,29.94,29.85,10,10,10,16,4,26,0.00,5,Rain,293
2013-10-30,52,42,32,40,37,32,99,85,49,30.15,30.06,30.00,10,10,4,7,2,,0.16,5,,228
2013-10-31,58,43,28,37,32,28,100,71,35,30.23,30.19,30.14,10,10,10,12,3,,0.00,0,,305